Location: Unspecified
(51.0950°N, 12.9690°E)
Time: 22:48:17
(UTC+00:00)

Cosmos 1943 Rocket - Pass Details

Date: 28 October 2021
Orbit: 811 x 845 km, 71.0° (Epoch: 01 December)

Event Time Altitude Azimuth Distance (km) Brightness Sun altitude
Rises 17:24:28 0° 329° (NNW) 3,416 5.8 -15.4°
Reaches altitude 10° 17:27:58 10° 351° (N) 2,478 4.7 -16.0°
Maximum altitude 17:31:24 16° 28° (NNE) 2,073 4.0 -16.5°
Enters shadow 17:32:41 15° 44° (NE) 2,131 3.9 -16.7°
